Time,TemperatureF,DewpointF,PressureIn,WindDirection,WindDirectionDegrees,WindSpeedMPH,WindSpeedGustMPH,Humidity,HourlyPrecipIn,Conditions,Clouds,dailyrainin,SoftwareType,DateUTC
2013-10-03 00:01:00,54.9,52.3,30.05,NW,321,0.0,0.0,91,0.00,,,0.00,Wunderground v.1.15,2013-10-03 04:01:00,
2013-10-03 00:08:00,54.5,51.9,30.05,NW,321,0.0,0.0,91,0.00,,,0.00,Wunderground v.1.15,2013-10-03 04:08:00,
2013-10-03 00:09:00,54.5,51.9,30.05,NW,321,0.0,0.0,91,0.00,,,0.00,Wunderground v.1.15,2013-10-03 04:09:00,
2013-10-03 00:11:00,54.4,51.8,30.05,NW,321,0.0,0.0,91,0.00,,,0.00,Wunderground v.1.15,2013-10-03 04:11:00,
2013-10-03 00:14:00,54.3,52.0,30.05,NW,321,0.0,0.0,92,0.00,,,0.00,Wunderground v.1.15,2013-10-03 04:14:00,
2013-10-03 00:20:00,54.2,51.9,30.05,NW,321,0.0,0.0,92,0.00,,,0.00,Wunderground v.1.15,2013-10-03 04:20:00,
2013-10-03 00:25:00,54.2,51.9,30.05,NW,321,0.0,0.0,92,0.00,,,0.00,Wunderground v.1.15,2013-10-03 04:25:00,
2013-10-03 00:33:00,54.0,51.7,30.05,NW,321,0.0,0.0,92,0.00,,,0.00,Wunderground v.1.15,2013-10-03 04:33:00,
2013-10-03 00:39:00,53.8,51.5,30.05,NW,321,0.0,0.0,92,0.00,,,0.00,Wunderground v.1.15,2013-10-03 04:39:00,
2013-10-03 00:45:00,53.7,51.7,30.05,NW,321,0.0,0.0,93,0.00,,,0.00,Wunderground v.1.15,2013-10-03 04:45:00,
2013-10-03 00:50:00,53.7,51.7,30.05,NW,321,0.0,0.0,93,0.00,,,0.00,Wunderground v.1.15,2013-10-03 04:50:00,
2013-10-03 00:57:00,53.9,51.9,30.06,NW,321,0.0,0.0,93,0.00,,,0.00,Wunderground v.1.15,2013-10-03 04:57:00,
2013-10-03 01:02:00,53.8,51.8,30.06,NW,321,0.0,0.0,93,0.00,,,0.00,Wunderground v.1.15,2013-10-03 05:02:00,
2013-10-03 01:09:00,53.6,51.6,30.06,NW,321,0.0,0.0,93,0.00,,,0.00,Wunderground v.1.15,2013-10-03 05:09:00,
2013-10-03 01:14:00,53.5,51.5,30.06,NW,321,0.0,0.0,93,0.00,,,0.00,Wunderground v.1.15,2013-10-03 05:14:00,
2013-10-03 01:19:00,53.5,51.5,30.06,NW,321,0.0,0.0,93,0.00,,,0.00,Wunderground v.1.15,2013-10-03 05:19:00,
2013-10-03 01:25:00,53.5,51.8,30.06,NW,321,0.0,0.0,94,0.00,,,0.00,Wunderground v.1.15,2013-10-03 05:25:00,
2013-10-03 01:31:00,53.7,52.0,30.06,NW,321,0.0,0.0,94,0.00,,,0.00,Wunderground v.1.15,2013-10-03 05:31:00,
2013-10-03 01:37:00,53.8,52.1,30.06,NW,321,0.0,0.0,94,0.00,,,0.00,Wunderground v.1.15,2013-10-03 05:37:00,
2013-10-03 01:42:00,53.7,52.0,30.06,NW,321,0.0,0.0,94,0.00,,,0.00,Wunderground v.1.15,2013-10-03 05:42:00,
2013-10-03 01:47:00,53.8,52.1,30.06,NW,321,0.0,0.0,94,0.00,,,0.00,Wunderground v.1.15,2013-10-03 05:47:00,
2013-10-03 01:54:00,53.6,51.9,30.07,NW,321,0.0,0.0,94,0.00,,,0.00,Wunderground v.1.15,2013-10-03 05:54:00,
2013-10-03 01:59:00,53.7,52.0,30.06,NW,321,0.0,0.0,94,0.00,,,0.00,Wunderground v.1.15,2013-10-03 05:59:00,
2013-10-03 02:05:00,53.7,52.0,30.06,NW,321,0.0,0.0,94,0.00,,,0.00,Wunderground v.1.15,2013-10-03 06:05:00,
2013-10-03 02:11:00,53.6,51.9,30.06,NW,321,0.0,0.0,94,0.00,,,0.00,Wunderground v.1.15,2013-10-03 06:11:00,
2013-10-03 02:16:00,53.5,51.8,30.06,NW,321,0.0,0.0,94,0.00,,,0.00,Wunderground v.1.15,2013-10-03 06:16:00,
2013-10-03 02:21:00,53.5,51.8,30.06,NW,321,0.0,0.0,94,0.00,,,0.00,Wunderground v.1.15,2013-10-03 06:21:00,
2013-10-03 02:26:00,53.4,51.7,30.06,NW,321,0.0,0.0,94,0.00,,,0.00,Wunderground v.1.15,2013-10-03 06:26:00,
2013-10-03 02:32:00,53.4,51.7,30.06,NW,321,0.0,0.0,94,0.00,,,0.00,Wunderground v.1.15,2013-10-03 06:32:00,
2013-10-03 02:39:00,53.2,51.5,30.06,NW,321,0.0,0.0,94,0.00,,,0.00,Wunderground v.1.15,2013-10-03 06:39:00,
2013-10-03 02:44:00,53.1,51.4,30.06,NW,321,0.0,0.0,94,0.00,,,0.00,Wunderground v.1.15,2013-10-03 06:44:00,
2013-10-03 02:49:00,53.0,51.3,30.06,NW,321,0.0,0.0,94,0.00,,,0.00,Wunderground v.1.15,2013-10-03 06:49:00,
2013-10-03 02:55:00,53.0,51.3,30.06,NW,321,0.0,0.0,94,0.00,,,0.00,Wunderground v.1.15,2013-10-03 06:55:00,
2013-10-03 03:08:00,52.5,50.8,30.06,NW,321,0.0,0.0,94,0.00,,,0.00,Wunderground v.1.15,2013-10-03 07:08:00,
2013-10-03 03:14:00,52.6,51.2,30.06,NW,321,0.0,0.0,95,0.00,,,0.00,Wunderground v.1.15,2013-10-03 07:14:00,
2013-10-03 03:20:00,52.6,51.2,30.05,NW,321,0.0,0.0,95,0.00,,,0.00,Wunderground v.1.15,2013-10-03 07:20:00,
2013-10-03 03:25:00,52.5,50.8,30.06,NW,321,0.0,0.0,94,0.00,,,0.00,Wunderground v.1.15,2013-10-03 07:25:00,
2013-10-03 03:32:00,52.4,51.0,30.06,NW,321,0.0,0.0,95,0.00,,,0.00,Wunderground v.1.15,2013-10-03 07:32:00,
2013-10-03 03:37:00,52.4,50.7,30.06,NW,321,0.0,0.0,94,0.00,,,0.00,Wunderground v.1.15,2013-10-03 07:37:00,
2013-10-03 03:42:00,52.5,51.1,30.06,NW,321,0.0,0.0,95,0.00,,,0.00,Wunderground v.1.15,2013-10-03 07:42:00,
2013-10-03 03:49:00,52.4,51.0,30.06,NW,321,0.0,0.0,95,0.00,,,0.00,Wunderground v.1.15,2013-10-03 07:49:00,
2013-10-03 03:54:00,52.4,51.0,30.06,NW,321,0.0,0.0,95,0.00,,,0.00,Wunderground v.1.15,2013-10-03 07:54:00,
2013-10-03 03:59:00,52.4,51.0,30.06,NW,321,0.0,0.0,95,0.00,,,0.00,Wunderground v.1.15,2013-10-03 07:59:00,
2013-10-03 04:05:00,52.3,50.9,30.06,NW,321,0.0,0.0,95,0.00,,,0.00,Wunderground v.1.15,2013-10-03 08:05:00,
2013-10-03 04:10:00,52.1,50.7,30.06,NW,321,0.0,0.0,95,0.00,,,0.00,Wunderground v.1.15,2013-10-03 08:10:00,
2013-10-03 04:16:00,51.9,50.5,30.06,NW,321,0.0,0.0,95,0.00,,,0.00,Wunderground v.1.15,2013-10-03 08:16:00,
2013-10-03 04:22:00,51.7,50.0,30.06,NW,321,0.0,0.0,94,0.00,,,0.00,Wunderground v.1.15,2013-10-03 08:22:00,
2013-10-03 04:27:00,51.5,49.8,30.06,NW,321,0.0,0.0,94,0.00,,,0.00,Wunderground v.1.15,2013-10-03 08:27:00,
2013-10-03 04:35:00,51.3,49.9,30.06,NW,321,0.0,0.0,95,0.00,,,0.00,Wunderground v.1.15,2013-10-03 08:35:00,
2013-10-03 04:40:00,51.4,50.0,30.06,NW,321,0.0,0.0,95,0.00,,,0.00,Wunderground v.1.15,2013-10-03 08:40:00,
2013-10-03 04:46:00,51.5,50.1,30.06,NW,321,0.0,0.0,95,0.00,,,0.00,Wunderground v.1.15,2013-10-03 08:46:00,
2013-10-03 04:52:00,51.7,50.3,30.07,NW,321,0.0,0.0,95,0.00,,,0.00,Wunderground v.1.15,2013-10-03 08:52:00,
2013-10-03 04:57:00,51.7,50.3,30.07,NW,321,0.0,0.0,95,0.00,,,0.00,Wunderground v.1.15,2013-10-03 08:57:00,
2013-10-03 05:06:00,51.6,50.2,30.07,NW,321,0.0,0.0,95,0.00,,,0.00,Wunderground v.1.15,2013-10-03 09:06:00,
2013-10-03 05:12:00,51.5,50.1,30.07,NW,321,0.0,0.0,95,0.00,,,0.00,Wunderground v.1.15,2013-10-03 09:12:00,
2013-10-03 05:17:00,51.2,49.8,30.07,NW,321,0.0,0.0,95,0.00,,,0.00,Wunderground v.1.15,2013-10-03 09:17:00,
2013-10-03 05:22:00,51.3,49.9,30.07,NW,321,0.0,0.0,95,0.00,,,0.00,Wunderground v.1.15,2013-10-03 09:22:00,
2013-10-03 05:28:00,51.4,50.0,30.07,NW,321,0.0,0.0,95,0.00,,,0.00,Wunderground v.1.15,2013-10-03 09:28:00,
2013-10-03 05:37:00,51.7,50.6,30.08,NW,321,0.0,0.0,96,0.00,,,0.00,Wunderground v.1.15,2013-10-03 09:37:00,
2013-10-03 05:42:00,51.9,50.8,30.07,NW,321,0.0,0.0,96,0.00,,,0.00,Wunderground v.1.15,2013-10-03 09:42:00,
2013-10-03 05:47:00,52.1,51.0,30.07,NW,321,0.0,0.0,96,0.00,,,0.00,Wunderground v.1.15,2013-10-03 09:47:00,
2013-10-03 05:53:00,52.3,51.2,30.08,NW,321,0.0,0.0,96,0.00,,,0.00,Wunderground v.1.15,2013-10-03 09:53:00,
2013-10-03 05:58:00,52.3,51.2,30.08,NW,321,0.0,0.0,96,0.00,,,0.00,Wunderground v.1.15,2013-10-03 09:58:00,
2013-10-03 06:05:00,52.4,51.3,30.08,NW,321,0.0,0.0,96,0.00,,,0.00,Wunderground v.1.15,2013-10-03 10:05:00,
2013-10-03 06:11:00,52.6,51.5,30.08,NW,321,0.0,0.0,96,0.00,,,0.00,Wunderground v.1.15,2013-10-03 10:11:00,
2013-10-03 06:16:00,52.8,51.7,30.08,NW,321,0.0,0.0,96,0.00,,,0.00,Wunderground v.1.15,2013-10-03 10:16:00,
2013-10-03 06:21:00,53.0,51.9,30.08,NW,321,0.0,0.0,96,0.00,,,0.00,Wunderground v.1.15,2013-10-03 10:21:00,
2013-10-03 06:29:00,53.2,52.1,30.08,NW,321,0.0,0.0,96,0.00,,,0.00,Wunderground v.1.15,2013-10-03 10:29:00,
2013-10-03 06:35:00,53.4,52.3,30.09,NW,321,0.0,0.0,96,0.00,,,0.00,Wunderground v.1.15,2013-10-03 10:35:00,
2013-10-03 06:40:00,53.5,52.4,30.08,NW,321,0.0,0.0,96,0.00,,,0.00,Wunderground v.1.15,2013-10-03 10:40:00,
2013-10-03 06:46:00,53.6,52.5,30.09,NW,321,0.0,0.0,96,0.00,,,0.00,Wunderground v.1.15,2013-10-03 10:46:00,
2013-10-03 06:52:00,53.6,52.5,30.09,NW,321,0.0,0.0,96,0.00,,,0.00,Wunderground v.1.15,2013-10-03 10:52:00,
2013-10-03 06:57:00,53.6,52.5,30.09,NW,321,0.0,0.0,96,0.00,,,0.00,Wunderground v.1.15,2013-10-03 10:57:00,
2013-10-03 07:05:00,53.5,52.4,30.09,NW,321,0.0,0.0,96,0.00,,,0.00,Wunderground v.1.15,2013-10-03 11:05:00,
2013-10-03 07:11:00,53.5,52.4,30.08,NW,321,0.0,0.0,96,0.00,,,0.00,Wunderground v.1.15,2013-10-03 11:11:00,
2013-10-03 07:16:00,53.6,52.5,30.09,NW,321,0.0,0.0,96,0.00,,,0.00,Wunderground v.1.15,2013-10-03 11:16:00,
2013-10-03 07:21:00,53.6,52.5,30.09,NW,321,0.0,0.0,96,0.00,,,0.00,Wunderground v.1.15,2013-10-03 11:21:00,
2013-10-03 07:26:00,53.6,52.5,30.09,NW,321,0.0,0.0,96,0.00,,,0.00,Wunderground v.1.15,2013-10-03 11:26:00,
2013-10-03 07:32:00,53.7,52.6,30.09,NW,321,0.0,0.0,96,0.00,,,0.00,Wunderground v.1.15,2013-10-03 11:32:00,
2013-10-03 07:38:00,53.7,52.6,30.09,NW,321,0.0,0.0,96,0.00,,,0.00,Wunderground v.1.15,2013-10-03 11:38:00,
2013-10-03 07:43:00,53.9,52.8,30.09,NW,321,0.0,0.0,96,0.00,,,0.00,Wunderground v.1.15,2013-10-03 11:43:00,
2013-10-03 07:49:00,54.1,53.0,30.09,NW,321,0.0,0.0,96,0.00,,,0.00,Wunderground v.1.15,2013-10-03 11:49:00,
2013-10-03 07:54:00,54.3,53.2,30.09,NW,321,0.0,0.0,96,0.00,,,0.00,Wunderground v.1.15,2013-10-03 11:54:00,
2013-10-03 08:01:00,54.7,53.6,30.09,NW,321,0.0,0.0,96,0.00,,,0.00,Wunderground v.1.15,2013-10-03 12:01:00,
2013-10-03 08:06:00,55.0,54.2,30.09,NW,321,0.0,0.0,97,0.00,,,0.00,Wunderground v.1.15,2013-10-03 12:06:00,
2013-10-03 08:11:00,55.5,54.7,30.10,NW,321,0.0,0.0,97,0.00,,,0.00,Wunderground v.1.15,2013-10-03 12:11:00,
2013-10-03 08:16:00,55.8,55.0,30.10,NW,321,0.0,0.0,97,0.00,,,0.00,Wunderground v.1.15,2013-10-03 12:16:00,
2013-10-03 08:21:00,56.2,55.4,30.10,NW,321,0.0,0.0,97,0.00,,,0.00,Wunderground v.1.15,2013-10-03 12:21:00,
2013-10-03 08:26:00,56.7,55.9,30.09,NW,321,0.0,0.0,97,0.00,,,0.00,Wunderground v.1.15,2013-10-03 12:26:00,
2013-10-03 08:32:00,57.3,56.5,30.09,NW,321,0.0,0.0,97,0.00,,,0.00,Wunderground v.1.15,2013-10-03 12:32:00,
2013-10-03 08:38:00,57.7,56.9,30.09,NW,321,0.0,0.0,97,0.00,,,0.00,Wunderground v.1.15,2013-10-03 12:38:00,
2013-10-03 08:44:00,58.4,57.6,30.09,NW,321,0.0,0.0,97,0.00,,,0.00,Wunderground v.1.15,2013-10-03 12:44:00,
2013-10-03 08:49:00,58.9,58.1,30.09,NW,321,0.0,0.0,97,0.00,,,0.00,Wunderground v.1.15,2013-10-03 12:49:00,
2013-10-03 08:55:00,59.3,58.4,30.10,NW,321,0.0,0.0,97,0.00,,,0.00,Wunderground v.1.15,2013-10-03 12:55:00,
2013-10-03 09:00:00,59.8,58.9,30.10,NW,321,0.0,0.0,97,0.00,,,0.00,Wunderground v.1.15,2013-10-03 13:00:00,
2013-10-03 09:05:00,60.2,59.1,30.10,NW,321,0.0,0.0,96,0.00,,,0.00,Wunderground v.1.15,2013-10-03 13:05:00,
2013-10-03 09:10:00,60.5,59.4,30.10,NW,321,0.0,0.0,96,0.00,,,0.00,Wunderground v.1.15,2013-10-03 13:10:00,
2013-10-03 09:16:00,61.1,59.7,30.11,NW,321,0.0,0.0,95,0.00,,,0.00,Wunderground v.1.15,2013-10-03 13:16:00,
2013-10-03 09:21:00,61.5,59.8,30.11,NW,321,0.0,0.0,94,0.00,,,0.00,Wunderground v.1.15,2013-10-03 13:21:00,
2013-10-03 09:26:00,61.9,59.9,30.11,NW,321,0.0,0.0,93,0.00,,,0.00,Wunderground v.1.15,2013-10-03 13:26:00,
2013-10-03 09:32:00,62.7,60.0,30.11,NW,321,0.0,0.0,91,0.00,,,0.00,Wunderground v.1.15,2013-10-03 13:32:00,
2013-10-03 09:38:00,63.4,60.4,30.11,NW,321,0.0,0.0,90,0.00,,,0.00,Wunderground v.1.15,2013-10-03 13:38:00,
2013-10-03 09:44:00,64.2,60.6,30.11,NW,321,0.0,0.0,88,0.00,,,0.00,Wunderground v.1.15,2013-10-03 13:44:00,
2013-10-03 09:50:00,65.0,61.0,30.11,NW,321,0.0,0.0,87,0.00,,,0.00,Wunderground v.1.15,2013-10-03 13:50:00,
2013-10-03 09:55:00,65.9,61.3,30.11,NW,321,0.0,0.0,85,0.00,,,0.00,Wunderground v.1.15,2013-10-03 13:55:00,
2013-10-03 10:00:00,66.6,61.3,30.10,NW,321,0.0,0.0,83,0.00,,,0.00,Wunderground v.1.15,2013-10-03 14:00:00,
2013-10-03 10:05:00,67.3,61.6,30.10,NW,321,0.0,0.0,82,0.00,,,0.00,Wunderground v.1.15,2013-10-03 14:05:00,
2013-10-03 10:10:00,68.0,62.3,30.11,NW,321,0.0,0.0,82,0.00,,,0.00,Wunderground v.1.15,2013-10-03 14:10:00,
2013-10-03 10:16:00,68.7,61.9,30.11,NW,321,0.0,0.0,79,0.00,,,0.00,Wunderground v.1.15,2013-10-03 14:16:00,
2013-10-03 10:21:00,69.7,62.5,30.10,NW,321,0.0,0.0,78,0.00,,,0.00,Wunderground v.1.15,2013-10-03 14:21:00,
2013-10-03 10:26:00,70.4,62.8,30.10,NW,321,0.0,0.0,77,0.00,,,0.00,Wunderground v.1.15,2013-10-03 14:26:00,
2013-10-03 10:31:00,71.3,63.3,30.11,NW,321,0.0,0.0,76,0.00,,,0.00,Wunderground v.1.15,2013-10-03 14:31:00,
2013-10-03 10:38:00,72.1,63.4,30.10,NW,321,0.0,2.0,74,0.00,,,0.00,Wunderground v.1.15,2013-10-03 14:38:00,
2013-10-03 10:43:00,73.4,63.8,30.10,NW,321,0.0,0.0,72,0.00,,,0.00,Wunderground v.1.15,2013-10-03 14:43:00,
2013-10-03 10:50:00,74.1,63.3,30.10,NW,321,0.0,0.0,69,0.00,,,0.00,Wunderground v.1.15,2013-10-03 14:50:00,
2013-10-03 10:55:00,74.1,63.7,30.10,NW,321,0.0,0.0,70,0.00,,,0.00,Wunderground v.1.15,2013-10-03 14:55:00,
2013-10-03 11:01:00,74.8,63.5,30.10,NW,321,0.0,0.0,68,0.00,,,0.00,Wunderground v.1.15,2013-10-03 15:01:00,
2013-10-03 11:06:00,75.2,63.5,30.10,NW,321,0.0,0.0,67,0.00,,,0.00,Wunderground v.1.15,2013-10-03 15:06:00,
2013-10-03 11:11:00,75.9,63.3,30.10,NW,321,0.0,1.0,65,0.00,,,0.00,Wunderground v.1.15,2013-10-03 15:11:00,
2013-10-03 11:17:00,76.4,63.8,30.10,NW,321,0.0,1.0,65,0.00,,,0.00,Wunderground v.1.15,2013-10-03 15:17:00,
2013-10-03 11:23:00,76.4,63.3,30.10,NW,324,0.0,1.0,64,0.00,,,0.00,Wunderground v.1.15,2013-10-03 15:23:00,
2013-10-03 11:29:00,76.5,63.4,30.09,NW,325,0.0,1.0,64,0.00,,,0.00,Wunderground v.1.15,2013-10-03 15:29:00,
2013-10-03 11:35:00,76.9,63.3,30.09,NW,325,0.0,0.0,63,0.00,,,0.00,Wunderground v.1.15,2013-10-03 15:35:00,
2013-10-03 11:40:00,77.0,63.0,30.09,NW,325,0.0,0.0,62,0.00,,,0.00,Wunderground v.1.15,2013-10-03 15:40:00,
2013-10-03 11:45:00,77.3,63.3,30.09,NW,326,0.0,0.0,62,0.00,,,0.00,Wunderground v.1.15,2013-10-03 15:45:00,
2013-10-03 11:50:00,77.2,63.2,30.09,NW,326,0.0,0.0,62,0.00,,,0.00,Wunderground v.1.15,2013-10-03 15:50:00,
2013-10-03 11:55:00,77.4,63.4,30.09,NW,326,0.0,1.0,62,0.00,,,0.00,Wunderground v.1.15,2013-10-03 15:55:00,
2013-10-03 12:01:00,77.9,63.8,30.08,NW,326,0.0,0.0,62,0.00,,,0.00,Wunderground v.1.15,2013-10-03 16:01:00,
2013-10-03 12:06:00,78.4,63.8,30.08,NW,326,0.0,1.0,61,0.00,,,0.00,Wunderground v.1.15,2013-10-03 16:06:00,
2013-10-03 12:11:00,79.1,63.5,30.08,NW,326,0.0,0.0,59,0.00,,,0.00,Wunderground v.1.15,2013-10-03 16:11:00,
2013-10-03 12:16:00,79.9,64.8,30.08,NW,326,0.0,1.0,60,0.00,,,0.00,Wunderground v.1.15,2013-10-03 16:16:00,
2013-10-03 12:21:00,80.5,64.9,30.07,NW,326,0.0,1.0,59,0.00,,,0.00,Wunderground v.1.15,2013-10-03 16:21:00,
2013-10-03 12:26:00,80.1,64.0,30.08,NW,326,1.0,1.0,58,0.00,,,0.00,Wunderground v.1.15,2013-10-03 16:26:00,
2013-10-03 12:32:00,80.5,64.4,30.07,NW,326,0.0,0.0,58,0.00,,,0.00,Wunderground v.1.15,2013-10-03 16:32:00,
2013-10-03 12:37:00,81.0,65.3,30.07,NNW,331,0.0,2.0,59,0.00,,,0.00,Wunderground v.1.15,2013-10-03 16:37:00,
2013-10-03 12:42:00,81.0,64.3,30.07,NNW,331,0.0,2.0,57,0.00,,,0.00,Wunderground v.1.15,2013-10-03 16:42:00,
2013-10-03 12:47:00,81.1,64.9,30.07,NNW,331,0.0,2.0,58,0.00,,,0.00,Wunderground v.1.15,2013-10-03 16:47:00,
2013-10-03 12:52:00,81.4,64.7,30.06,NNW,331,0.0,1.0,57,0.00,,,0.00,Wunderground v.1.15,2013-10-03 16:52:00,
2013-10-03 12:59:00,81.3,64.6,30.06,ENE,57,1.0,2.0,57,0.00,,,0.00,Wunderground v.1.15,2013-10-03 16:59:00,
2013-10-03 13:06:00,81.1,64.9,30.06,ENE,57,0.0,1.0,58,0.00,,,0.00,Wunderground v.1.15,2013-10-03 17:06:00,
2013-10-03 13:11:00,81.9,65.2,30.06,ENE,57,0.0,1.0,57,0.00,,,0.00,Wunderground v.1.15,2013-10-03 17:11:00,
2013-10-03 13:16:00,82.2,64.4,30.06,ENE,57,0.0,0.0,55,0.00,,,0.00,Wunderground v.1.15,2013-10-03 17:16:00,
2013-10-03 13:22:00,81.8,64.6,30.05,ENE,57,0.0,0.0,56,0.00,,,0.00,Wunderground v.1.15,2013-10-03 17:22:00,
2013-10-03 13:27:00,81.9,65.2,30.05,ENE,57,0.0,1.0,57,0.00,,,0.00,Wunderground v.1.15,2013-10-03 17:27:00,
2013-10-03 13:32:00,81.5,64.3,30.05,ENE,57,0.0,0.0,56,0.00,,,0.00,Wunderground v.1.15,2013-10-03 17:32:00,
2013-10-03 13:39:00,81.2,64.5,30.04,ENE,57,0.0,2.0,57,0.00,,,0.00,Wunderground v.1.15,2013-10-03 17:39:00,
2013-10-03 13:44:00,81.1,63.9,30.04,ENE,57,0.0,1.0,56,0.00,,,0.00,Wunderground v.1.15,2013-10-03 17:44:00,
2013-10-03 13:49:00,81.2,64.5,30.04,ENE,57,0.0,2.0,57,0.00,,,0.00,Wunderground v.1.15,2013-10-03 17:49:00,
2013-10-03 13:55:00,81.2,64.0,30.04,ENE,59,1.0,2.0,56,0.00,,,0.00,Wunderground v.1.15,2013-10-03 17:55:00,
2013-10-03 14:01:00,81.7,63.4,30.04,ENE,59,0.0,0.0,54,0.00,,,0.00,Wunderground v.1.15,2013-10-03 18:01:00,
2013-10-03 14:06:00,81.8,64.1,30.04,ENE,59,0.0,1.0,55,0.00,,,0.00,Wunderground v.1.15,2013-10-03 18:06:00,
2013-10-03 14:11:00,81.7,63.4,30.03,ENE,59,1.0,2.0,54,0.00,,,0.00,Wunderground v.1.15,2013-10-03 18:11:00,
2013-10-03 14:17:00,81.7,63.4,30.03,ENE,59,1.0,3.0,54,0.00,,,0.00,Wunderground v.1.15,2013-10-03 18:17:00,
2013-10-03 14:24:00,81.5,63.3,30.03,ENE,59,0.0,1.0,54,0.00,,,0.00,Wunderground v.1.15,2013-10-03 18:24:00,
2013-10-03 14:29:00,82.3,64.0,30.03,ENE,59,0.0,1.0,54,0.00,,,0.00,Wunderground v.1.15,2013-10-03 18:29:00,
2013-10-03 14:35:00,82.5,64.2,30.02,ENE,59,0.0,2.0,54,0.00,,,0.00,Wunderground v.1.15,2013-10-03 18:35:00,
2013-10-03 14:41:00,82.2,63.4,30.02,ENE,59,1.0,1.0,53,0.00,,,0.00,Wunderground v.1.15,2013-10-03 18:41:00,
2013-10-03 14:46:00,82.1,63.3,30.02,ENE,60,1.0,4.0,53,0.00,,,0.00,Wunderground v.1.15,2013-10-03 18:46:00,
2013-10-03 14:52:00,82.2,63.9,30.02,ENE,60,1.0,1.0,54,0.00,,,0.00,Wunderground v.1.15,2013-10-03 18:52:00,
2013-10-03 14:58:00,83.0,63.0,30.02,ENE,60,1.0,2.0,51,0.00,,,0.00,Wunderground v.1.15,2013-10-03 18:58:00,
2013-10-03 15:05:00,84.0,63.4,30.02,ENE,60,0.0,1.0,50,0.00,,,0.00,Wunderground v.1.15,2013-10-03 19:05:00,
2013-10-03 15:11:00,83.9,63.8,30.02,NW,308,1.0,2.0,51,0.00,,,0.00,Wunderground v.1.15,2013-10-03 19:11:00,
2013-10-03 15:16:00,84.2,63.0,30.02,WNW,302,2.0,7.0,49,0.00,,,0.00,Wunderground v.1.15,2013-10-03 19:16:00,
2013-10-03 15:22:00,84.6,63.9,30.01,NNW,335,1.0,3.0,50,0.00,,,0.00,Wunderground v.1.15,2013-10-03 19:22:00,
2013-10-03 15:28:00,85.2,62.7,30.01,NW,309,1.0,4.0,47,0.00,,,0.00,Wunderground v.1.15,2013-10-03 19:28:00,
2013-10-03 15:35:00,85.0,62.5,30.01,East,90,2.0,2.0,47,0.00,,,0.00,Wunderground v.1.15,2013-10-03 19:35:00,
2013-10-03 15:40:00,85.1,63.2,30.01,East,90,1.0,2.0,48,0.00,,,0.00,Wunderground v.1.15,2013-10-03 19:40:00,
2013-10-03 15:45:00,84.2,63.5,30.01,East,90,1.0,3.0,50,0.00,,,0.00,Wunderground v.1.15,2013-10-03 19:45:00,
2013-10-03 15:50:00,83.0,63.0,30.01,East,90,1.0,3.0,51,0.00,,,0.00,Wunderground v.1.15,2013-10-03 19:50:00,
2013-10-03 15:57:00,82.7,62.7,30.01,East,90,0.0,1.0,51,0.00,,,0.00,Wunderground v.1.15,2013-10-03 19:57:00,
2013-10-03 16:02:00,82.3,62.9,30.01,East,90,0.0,1.0,52,0.00,,,0.00,Wunderground v.1.15,2013-10-03 20:02:00,
2013-10-03 16:07:00,82.3,62.9,30.01,East,90,0.0,1.0,52,0.00,,,0.00,Wunderground v.1.15,2013-10-03 20:07:00,
2013-10-03 16:12:00,82.6,64.8,30.01,East,90,0.0,0.0,55,0.00,,,0.00,Wunderground v.1.15,2013-10-03 20:12:00,
2013-10-03 16:20:00,82.5,64.7,30.01,East,91,1.0,7.0,55,0.00,,,0.00,Wunderground v.1.15,2013-10-03 20:20:00,
2013-10-03 16:25:00,82.2,64.9,30.01,East,91,2.0,2.0,56,0.00,,,0.00,Wunderground v.1.15,2013-10-03 20:25:00,
2013-10-03 16:31:00,82.1,64.3,30.01,East,91,1.0,2.0,55,0.00,,,0.00,Wunderground v.1.15,2013-10-03 20:31:00,
2013-10-03 16:37:00,82.0,63.7,30.01,East,91,0.0,3.0,54,0.00,,,0.00,Wunderground v.1.15,2013-10-03 20:37:00,
2013-10-03 16:42:00,81.9,64.1,30.01,East,91,0.0,0.0,55,0.00,,,0.00,Wunderground v.1.15,2013-10-03 20:42:00,
2013-10-03 16:47:00,81.9,63.6,30.01,East,91,0.0,1.0,54,0.00,,,0.00,Wunderground v.1.15,2013-10-03 20:47:00,
2013-10-03 16:52:00,81.9,63.6,30.01,East,91,0.0,1.0,54,0.00,,,0.00,Wunderground v.1.15,2013-10-03 20:52:00,
2013-10-03 16:57:00,81.7,64.0,30.00,East,91,0.0,2.0,55,0.00,,,0.00,Wunderground v.1.15,2013-10-03 20:57:00,
2013-10-03 17:05:00,81.2,64.0,30.00,East,91,1.0,3.0,56,0.00,,,0.00,Wunderground v.1.15,2013-10-03 21:05:00,
2013-10-03 17:11:00,81.1,64.4,30.01,East,91,1.0,1.0,57,0.00,,,0.00,Wunderground v.1.15,2013-10-03 21:11:00,
2013-10-03 17:16:00,80.9,64.7,30.00,East,91,1.0,1.0,58,0.00,,,0.00,Wunderground v.1.15,2013-10-03 21:16:00,
2013-10-03 17:22:00,80.6,64.9,30.01,East,91,0.0,0.0,59,0.00,,,0.00,Wunderground v.1.15,2013-10-03 21:22:00,
2013-10-03 17:29:00,80.2,64.1,30.01,East,91,1.0,3.0,58,0.00,,,0.00,Wunderground v.1.15,2013-10-03 21:29:00,
2013-10-03 17:36:00,80.0,64.4,30.01,East,91,1.0,1.0,59,0.00,,,0.00,Wunderground v.1.15,2013-10-03 21:36:00,
2013-10-03 17:41:00,79.8,64.2,30.01,East,91,0.0,0.0,59,0.00,,,0.00,Wunderground v.1.15,2013-10-03 21:41:00,
2013-10-03 17:47:00,79.8,64.7,30.01,East,91,0.0,0.0,60,0.00,,,0.00,Wunderground v.1.15,2013-10-03 21:47:00,
2013-10-03 17:53:00,79.7,64.6,30.01,East,91,0.0,1.0,60,0.00,,,0.00,Wunderground v.1.15,2013-10-03 21:53:00,
2013-10-03 17:59:00,79.5,64.4,30.01,East,92,1.0,3.0,60,0.00,,,0.00,Wunderground v.1.15,2013-10-03 21:59:00,
2013-10-03 18:05:00,79.1,64.5,30.01,East,92,1.0,2.0,61,0.00,,,0.00,Wunderground v.1.15,2013-10-03 22:05:00,
2013-10-03 18:10:00,78.9,64.8,30.01,East,94,1.0,6.0,62,0.00,,,0.00,Wunderground v.1.15,2013-10-03 22:10:00,
2013-10-03 18:16:00,78.6,64.5,30.01,East,94,1.0,6.0,62,0.00,,,0.00,Wunderground v.1.15,2013-10-03 22:16:00,
2013-10-03 18:22:00,78.4,64.8,30.01,East,94,1.0,3.0,63,0.00,,,0.00,Wunderground v.1.15,2013-10-03 22:22:00,
2013-10-03 18:27:00,78.1,64.5,30.01,East,94,1.0,3.0,63,0.00,,,0.00,Wunderground v.1.15,2013-10-03 22:27:00,
2013-10-03 18:32:00,78.0,64.8,30.01,East,94,0.0,1.0,64,0.00,,,0.00,Wunderground v.1.15,2013-10-03 22:32:00,
2013-10-03 18:38:00,77.6,64.5,30.01,East,94,0.0,1.0,64,0.00,,,0.00,Wunderground v.1.15,2013-10-03 22:38:00,
2013-10-03 18:44:00,77.2,64.5,30.01,East,94,0.0,0.0,65,0.00,,,0.00,Wunderground v.1.15,2013-10-03 22:44:00,
2013-10-03 18:50:00,76.9,64.7,30.02,East,94,0.0,1.0,66,0.00,,,0.00,Wunderground v.1.15,2013-10-03 22:50:00,
2013-10-03 18:56:00,76.5,64.7,30.02,East,94,0.0,0.0,67,0.00,,,0.00,Wunderground v.1.15,2013-10-03 22:56:00,
2013-10-03 19:02:00,76.2,64.4,30.01,East,94,0.0,0.0,67,0.00,,,0.00,Wunderground v.1.15,2013-10-03 23:02:00,
2013-10-03 19:08:00,75.9,64.6,30.02,East,94,0.0,0.0,68,0.00,,,0.00,Wunderground v.1.15,2013-10-03 23:08:00,
2013-10-03 19:14:00,75.6,64.7,30.02,East,94,0.0,0.0,69,0.00,,,0.00,Wunderground v.1.15,2013-10-03 23:14:00,
2013-10-03 19:19:00,75.2,64.3,30.01,East,94,0.0,0.0,69,0.00,,,0.00,Wunderground v.1.15,2013-10-03 23:19:00,
2013-10-03 19:25:00,74.9,64.5,30.01,East,94,0.0,0.0,70,0.00,,,0.00,Wunderground v.1.15,2013-10-03 23:25:00,
2013-10-03 19:31:00,74.5,64.5,30.01,East,94,0.0,0.0,71,0.00,,,0.00,Wunderground v.1.15,2013-10-03 23:31:00,
2013-10-03 19:39:00,74.2,64.2,30.01,East,94,0.0,0.0,71,0.00,,,0.00,Wunderground v.1.15,2013-10-03 23:39:00,
2013-10-03 19:46:00,73.9,63.9,30.01,East,94,0.0,0.0,71,0.00,,,0.00,Wunderground v.1.15,2013-10-03 23:46:00,
2013-10-03 19:52:00,73.7,64.1,30.01,East,94,0.0,0.0,72,0.00,,,0.00,Wunderground v.1.15,2013-10-03 23:52:00,
2013-10-03 19:57:00,73.5,63.9,30.01,East,94,0.0,0.0,72,0.00,,,0.00,Wunderground v.1.15,2013-10-03 23:57:00,
2013-10-03 20:02:00,73.3,64.1,30.01,East,94,0.0,0.0,73,0.00,,,0.00,Wunderground v.1.15,2013-10-04 00:02:00,
2013-10-03 20:07:00,73.1,63.9,30.01,East,94,0.0,0.0,73,0.00,,,0.00,Wunderground v.1.15,2013-10-04 00:07:00,
2013-10-03 20:14:00,72.9,63.7,30.02,East,94,0.0,0.0,73,0.00,,,0.00,Wunderground v.1.15,2013-10-04 00:14:00,
2013-10-03 20:22:00,72.6,63.8,30.02,East,94,0.0,0.0,74,0.00,,,0.00,Wunderground v.1.15,2013-10-04 00:22:00,
2013-10-03 20:29:00,72.6,63.8,30.02,East,94,0.0,0.0,74,0.00,,,0.00,Wunderground v.1.15,2013-10-04 00:29:00,
2013-10-03 20:36:00,72.3,63.5,30.02,East,94,0.0,0.0,74,0.00,,,0.00,Wunderground v.1.15,2013-10-04 00:36:00,
2013-10-03 20:41:00,72.2,63.4,30.02,East,94,0.0,0.0,74,0.00,,,0.00,Wunderground v.1.15,2013-10-04 00:41:00,
2013-10-03 20:46:00,72.1,63.4,30.02,East,94,0.0,0.0,74,0.00,,,0.00,Wunderground v.1.15,2013-10-04 00:46:00,
2013-10-03 20:51:00,72.0,63.6,30.02,East,94,0.0,0.0,75,0.00,,,0.00,Wunderground v.1.15,2013-10-04 00:51:00,
2013-10-03 20:57:00,71.9,63.5,30.02,East,94,0.0,0.0,75,0.00,,,0.00,Wunderground v.1.15,2013-10-04 00:57:00,
2013-10-03 21:02:00,71.2,63.2,30.02,East,94,0.0,0.0,76,0.00,,,0.00,Wunderground v.1.15,2013-10-04 01:02:00,
2013-10-03 21:08:00,70.1,62.6,30.03,East,94,0.0,0.0,77,0.00,,,0.00,Wunderground v.1.15,2013-10-04 01:08:00,
2013-10-03 21:14:00,69.1,62.3,30.03,East,94,0.0,0.0,79,0.00,,,0.00,Wunderground v.1.15,2013-10-04 01:14:00,
2013-10-03 21:20:00,68.5,61.7,30.03,East,94,0.0,0.0,79,0.00,,,0.00,Wunderground v.1.15,2013-10-04 01:20:00,
2013-10-03 21:25:00,68.0,61.6,30.03,East,94,0.0,0.0,80,0.00,,,0.00,Wunderground v.1.15,2013-10-04 01:25:00,
2013-10-03 21:31:00,67.4,61.0,30.03,East,94,0.0,0.0,80,0.00,,,0.00,Wunderground v.1.15,2013-10-04 01:31:00,
2013-10-03 21:37:00,66.5,60.5,30.04,East,94,0.0,0.0,81,0.00,,,0.00,Wunderground v.1.15,2013-10-04 01:37:00,
2013-10-03 21:42:00,65.7,60.1,30.04,East,94,0.0,0.0,82,0.00,,,0.00,Wunderground v.1.15,2013-10-04 01:42:00,
2013-10-03 21:48:00,65.2,59.6,30.04,East,94,0.0,0.0,82,0.00,,,0.00,Wunderground v.1.15,2013-10-04 01:48:00,
2013-10-03 21:54:00,63.7,58.8,30.04,East,94,0.0,0.0,84,0.00,,,0.00,Wunderground v.1.15,2013-10-04 01:54:00,
2013-10-03 21:59:00,63.1,58.5,30.04,East,94,0.0,0.0,85,0.00,,,0.00,Wunderground v.1.15,2013-10-04 01:59:00,
2013-10-03 22:06:00,62.9,58.6,30.04,East,94,0.0,0.0,86,0.00,,,0.00,Wunderground v.1.15,2013-10-04 02:06:00,
2013-10-03 22:11:00,62.8,58.9,30.04,East,94,0.0,0.0,87,0.00,,,0.00,Wunderground v.1.15,2013-10-04 02:11:00,
2013-10-03 22:18:00,62.9,59.3,30.04,East,94,0.0,0.0,88,0.00,,,0.00,Wunderground v.1.15,2013-10-04 02:18:00,
2013-10-03 22:24:00,62.7,59.1,30.04,East,94,0.0,0.0,88,0.00,,,0.00,Wunderground v.1.15,2013-10-04 02:24:00,
2013-10-03 22:30:00,62.1,58.5,30.04,East,94,0.0,0.0,88,0.00,,,0.00,Wunderground v.1.15,2013-10-04 02:30:00,
2013-10-03 22:37:00,61.3,57.7,30.04,East,94,0.0,0.0,88,0.00,,,0.00,Wunderground v.1.15,2013-10-04 02:37:00,
2013-10-03 22:44:00,60.8,57.8,30.04,East,94,0.0,0.0,90,0.00,,,0.00,Wunderground v.1.15,2013-10-04 02:44:00,
2013-10-03 22:50:00,60.9,58.3,30.04,East,94,0.0,0.0,91,0.00,,,0.00,Wunderground v.1.15,2013-10-04 02:50:00,
2013-10-03 22:55:00,60.6,58.0,30.04,East,94,0.0,0.0,91,0.00,,,0.00,Wunderground v.1.15,2013-10-04 02:55:00,
2013-10-03 23:01:00,60.5,57.9,30.04,East,94,0.0,0.0,91,0.00,,,0.00,Wunderground v.1.15,2013-10-04 03:01:00,
2013-10-03 23:06:00,60.7,58.1,30.04,East,94,0.0,0.0,91,0.00,,,0.00,Wunderground v.1.15,2013-10-04 03:06:00,
2013-10-03 23:13:00,60.5,57.9,30.04,East,94,0.0,0.0,91,0.00,,,0.00,Wunderground v.1.15,2013-10-04 03:13:00,
2013-10-03 23:18:00,59.7,56.8,30.04,East,94,0.0,0.0,90,0.00,,,0.00,Wunderground v.1.15,2013-10-04 03:18:00,
2013-10-03 23:24:00,59.2,56.3,30.04,East,94,0.0,0.0,90,0.00,,,0.00,Wunderground v.1.15,2013-10-04 03:24:00,
2013-10-03 23:29:00,58.9,56.0,30.04,East,94,0.0,0.0,90,0.00,,,0.00,Wunderground v.1.15,2013-10-04 03:29:00,
2013-10-03 23:36:00,58.7,56.1,30.04,East,94,0.0,0.0,91,0.00,,,0.00,Wunderground v.1.15,2013-10-04 03:36:00,
2013-10-03 23:42:00,58.5,55.9,30.04,East,94,0.0,0.0,91,0.00,,,0.00,Wunderground v.1.15,2013-10-04 03:42:00,
2013-10-03 23:48:00,58.2,55.6,30.03,East,94,0.0,0.0,91,0.00,,,0.00,Wunderground v.1.15,2013-10-04 03:48:00,
2013-10-03 23:54:00,57.7,54.8,30.03,East,94,0.0,0.0,90,0.00,,,0.00,Wunderground v.1.15,2013-10-04 03:54:00,
2013-10-03 23:59:00,57.4,54.8,30.03,East,94,0.0,0.0,91,0.00,,,0.00,Wunderground v.1.15,2013-10-04 03:59:00,